CZ-2C DEB

Satellite information

Favourite Embed

Satellite Type and Status

DEBRISIN ORBIT

Key statistics

Satellite CZ-2C DEB at a glance.

Uptime

5275

Days in orbit

Revolutions

≈ 14.4

Per day

Orbit

SSO

Sun Synchronous Orbit

Inclination

98.5

Latest

Satellite identification and parameters

Extended collection of information and parameters for CZ-2C DEB.

Object identification

Identified? True

Debris? True

Object name: CZ-2C DEB

International designator: 2011-030D

Object number (NORAD): 37733

Object ID (CCSDS): 37733

Country: PEOPLES REPUBLIC OF CHINA (PRC)

Current information (Y/N): Y

RCS size: SMALL

Orbital parameters

Period: 99.851 minutes

Inclination: 98.5454 deg

SMA: 7129.523 km

Apoapsis: 842.468 km

Periapsis: 660.309 km

RAAN: 299.1066 deg

Eccentricy: 0.01277499

Argument of periapsis: 77.514 deg

Mean anomaly: 297.6493 deg

Mean motion: 14.42155246 rev/day

Mean motion (dot): 0.00005136 rev/day2

B* drag term: 0.0014274358 1/REarth

Two-line elements (TLE)

Creation date: Dec. 12, 2025, 10:14 a.m.

Reference frame: TEME

Reference center: EARTH

Epoch: Dec. 12, 2025, 3:55 a.m. UTC

TLE line 0: 0 CZ-2C DEB

TLE line 1: 1 37733U 11030D 25346.16336799 .00005136 00000-0 14274-2 0 9997

TLE line 2: 2 37733 98.5454 299.1066 0127750 77.5140 297.6493 14.42155246752759

Live tracking on map

Real-time ground track for satellite CZ-2C DEB.

In-orbit conjunctions

A list of the most updated potential collisions computed for object CZ-2C DEB.

Target Orbit TCA Probability of collision Miss distance Type
EYESAT A SSO 2025-09-20 09:13:30 0.000254985 372.0 (m) PAYLOAD
FENGYUN 1C DEB SSO 2024-09-25 07:35:57 0.001404625 151.0 (m) DEBRIS

Associated space launch

CZ-2C DEB was lifted into orbit during the mission ‘Long March 2C | Shijian 10-03’, on board a Long March 2 space rocket.

The launch took place on July 6, 2011, 4:28 a.m. from Launch Area 94 (SLS-2 / 603).

For more information about the launch, click the button.

Launch to space Long March 2C | Shijian 10-03
Long March 2C | Shijian 10-03

Agency: N/A

Status: Launch Successful

Launch date: July 6, 2011, 4:28 a.m. UTC

Rocket: Long March 2

Launch pad: Launch Area 94 (SLS-2 / 603)

Location: Jiuquan Satellite Launch Center, People's Republic of China

...

Latest news about this satellite

There are no fresh news available about this satellite. Check back as we update our databases every day.


Newsletter sign-up

Weekly statistics, charts and insights to help you stay on top of the space industry.